FW0208 Weather Reports


time (UTC)temp
C
wind
direction
speed
KPH
gust
KPH
rain 1hr
cm
rain 24hr
cm
rain mn
cm
humidity
%
barometer
mb
20260506203021 10 57 0.0 4.8 0.00 0.05 0.05 70 1010.6
20260506201519 11 58 1.6 6.4 0.00 0.05 0.05 69 1010.5
20260506200021 11 65 1.6 4.8 0.00 0.05 0.05 68 1010.6
20260506194515 11 59 1.6 6.4 0.00 0.05 0.05 67 1010.4
20260506193011 11 37 6.4 9.7 0.00 0.05 0.05 66 1010.3
20260506191510 12 47 4.8 12.9 0.00 0.05 0.05 66 1010.2
20260506190012 12 59 6.4 16.1 0.00 0.05 0.05 65 1010.0
20260506184506 12 38 4.8 12.9 0.00 0.05 0.05 65 1009.8
20260506183006 13 74 4.8 11.3 0.00 0.05 0.05 64 1009.6
20260506181503 13 52 6.4 11.3 0.00 0.05 0.05 64 1009.3
20260506180001 13 59 6.4 14.5 0.00 0.05 0.05 64 1009.1
20260506174559 13 26 4.8 14.5 0.00 0.05 0.05 64 1009.0
20260506173134 13 64 11.3 22.5 0.00 0.05 0.05 67 1008.7
20260506171557 14 327 14.5 22.5 0.00 0.05 0.05 70 1008.6
20260506170055 14 338 12.9 24.1 0.00 0.05 0.05 70 1008.5
20260506164555 14 324 14.5 22.5 0.00 0.05 0.05 70 1008.4
20260506163059 13 325 8.0 17.7 0.00 0.05 0.05 70 1008.4
20260506161557 14 327 6.4 20.9 0.00 0.05 0.05 69 1008.3
20260506160053 14 332 8.0 17.7 0.00 0.05 0.05 70 1008.4
20260506154553 13 333 8.0 16.1 0.00 0.05 0.05 71 1008.4
20260506153051 14 345 11.3 19.3 0.00 0.05 0.05 69 1008.4
20260506151551 15 339 9.7 19.3 0.00 0.05 0.05 66 1008.4
20260506150150 16 348 12.9 24.1 0.00 0.05 0.05 62 1008.4
20260506144602 17 307 14.5 24.1 0.00 0.05 0.05 62 1008.3
20260506143046 17 338 16.1 24.1 0.00 0.05 0.05 63 1008.3
20260506141543 16 355 11.3 24.1 0.00 0.05 0.05 66 1008.1
20260506140040 16 343 17.7 24.1 0.00 0.05 0.05 66 1008.3
20260506134538 15 315 14.5 24.1 0.00 0.05 0.05 69 1008.3
20260506133041 15 325 14.5 24.1 0.00 0.05 0.05 68 1008.4
20260506131534 16 349 14.5 25.7 0.00 0.05 0.05 69 1008.3
20260506130034 15 329 14.5 24.1 0.00 0.05 0.05 70 1008.2
20260506124528 15 307 12.9 25.7 0.00 0.05 0.05 70 1008.2
20260506123028 15 325 12.9 22.5 0.00 0.05 0.05 70 1008.1
20260506121527 14 340 11.3 24.1 0.00 0.05 0.05 73 1008.1
20260506120028 14 345 11.3 20.9 0.00 0.05 0.05 73 1008.1
20260506114521 14 327 12.9 24.1 0.00 0.05 0.05 73 1008.1
20260506113022 14 313 9.7 20.9 0.00 0.05 0.05 73 1008.0
20260506111520 14 327 9.7 20.9 0.00 0.05 0.05 75 1008.1
20260506110020 14 341 12.9 20.9 0.00 0.05 0.05 76 1008.0
20260506104517 13 326 6.4 20.9 0.00 0.05 0.05 76 1008.1
20260506103016 13 360 8.0 20.9 0.00 0.05 0.05 76 1008.2
20260506101514 13 329 11.3 20.9 0.00 0.05 0.05 76 1008.1
20260506100012 12 317 11.3 22.5 0.00 0.05 0.05 80 1008.1
20260506094506 12 342 11.3 20.9 0.00 0.05 0.05 82 1008.1
20260506093002 11 322 11.3 22.5 0.00 0.05 0.05 87 1008.0
20260506091559 11 355 9.7 24.1 0.00 0.05 0.05 89 1008.0
20260506090059 10 342 8.0 19.3 0.00 0.05 0.05 90 1007.9
20260506084559 10 328 11.3 19.3 0.03 0.05 0.05 90 1007.9
20260506083058 10 313 8.0 17.7 0.05 0.05 0.05 91 1007.7
20260506081550 10 342 6.4 16.1 0.05 0.05 0.05 91 1007.8
20260506080104 10 329 6.4 14.5 0.05 0.05 0.05 90 1007.7
20260506073047 10 337 9.7 16.1 0.00 0.00 0.00 88 1007.7
20260506071543 9 10 6.4 17.7 0.00 0.00 0.00 88 1007.6
20260506061539 10 355 9.7 20.9 0.00 0.00 0.00 83 1007.3
20260506044539 9 355 12.9 25.7 0.00 0.00 0.00 79 1007.1
20260506043030 9 355 9.7 17.7 0.00 0.00 0.00 80 1007.1
20260506041538 9 5 8.0 17.7 0.00 0.00 0.00 80 1007.0
20260506040032 9 346 8.0 17.7 0.00 0.00 0.00 80 1007.2
20260506034531 9 334 9.7 19.3 0.00 0.00 0.00 80 1007.3
20260506033024 8 5 8.0 19.3 0.00 0.00 0.00 80 1007.2
20260506031524 8 355 11.3 19.3 0.00 0.00 0.00 80 1007.3
20260506030022 8 329 6.4 16.1 0.00 0.00 0.00 81 1007.4
20260506024522 8 335 8.0 17.7 0.00 0.00 0.00 81 1007.5
20260506023020 8 5 8.0 16.1 0.00 0.00 0.00 81 1007.5
20260506021517 8 11 6.4 16.1 0.00 0.00 0.00 81 1007.7
20260506020015 8 28 6.4 14.5 0.00 0.00 0.00 81 1007.6
20260506014515 8 350 4.8 16.1 0.00 0.00 0.00 81 1007.8
20260506013015 8 360 6.4 16.1 0.00 0.00 0.00 81 1007.7
20260506011532 8 346 6.4 16.1 0.00 0.00 0.00 81 1007.8
20260506010010 8 13 6.4 14.5 0.00 0.00 0.00 81 1007.8
20260506004516 8 346 4.8 16.1 0.00 0.00 0.00 81 1007.9
20260506003005 8 337 9.7 16.1 0.00 0.00 0.00 82 1008.0
20260506001502 8 344 4.8 9.7 0.00 0.00 0.00 81 1008.2
20260505234601 9 355 6.4 14.5 0.00 0.00 0.00 81 1008.2
20260505233055 9 350 8.0 16.1 0.00 0.00 0.00 81 1008.4
20260505231555 10 9 8.0 14.5 0.00 0.00 0.00 80 1008.3
20260505230057 10 5 6.4 16.1 0.00 0.00 0.00 79 1008.4
20260505224549 10 9 3.2 14.5 0.00 0.00 0.00 79 1008.4
20260505223046 10 5 8.0 19.3 0.00 0.00 0.00 79 1008.5
20260505221556 10 37 6.4 20.9 0.00 0.00 0.00 79 1008.4
20260505220054 10 17 8.0 20.9 0.00 0.00 0.00 80 1008.4
20260505214550 10 360 8.0 16.1 0.00 0.00 0.00 80 1008.4
20260505213041 10 348 6.4 17.7 0.00 0.00 0.00 80 1008.4
20260505211541 10 5 8.0 19.3 0.00 0.00 0.00 80 1008.5
20260505210046 11 336 9.7 22.5 0.00 0.00 0.00 80 1008.5
20260505204542 11 11 9.7 17.7 0.00 0.00 0.00 80 1008.4